This is the latest recevied weather packets stored in our database for station/object KC5CAM-13. If no packets are shown the sender has not sent any weather packets the latest 10 day(s).
| Time | Temp. | Humidity | Pressure | Rain* | Wind** | Luminosity | Snow |
|---|---|---|---|---|---|---|---|
| 1777642519 | 13.89° C | 85% | 1018 hPa | 0 mm | - | 25 W/m² | - |
| 1777642215 | 13.89° C | 85% | 1017.7 hPa | 0 mm | - | 26 W/m² | - |
| 1777641912 | 13.89° C | 85% | 1017.7 hPa | 0 mm | - | 32 W/m² | - |
| 1777641608 | 13.89° C | 85% | 1018.2 hPa | 0 mm | - | 34 W/m² | - |
| 1777641308 | 13.89° C | 86% | 1018.3 hPa | 0 mm | - | 36 W/m² | - |
| 1777641004 | 13.89° C | 86% | 1018.4 hPa | 0 mm | - | 30 W/m² | - |
| 1777640700 | 13.89° C | 86% | 1018.4 hPa | 0 mm | - | 18 W/m² | - |
| 1777640397 | 13.89° C | 86% | 1018.1 hPa | 0 mm | - | 16 W/m² | - |
| 1777640094 | 13.89° C | 87% | 1018 hPa | 0 mm | - | 20 W/m² | - |
| 1777639791 | 13.89° C | 87% | 1018 hPa | 0 mm | - | 17 W/m² | - |
| 1777639489 | 13.89° C | 87% | 1017.8 hPa | 0 mm | - | 12 W/m² | - |
| 1777639185 | 13.89° C | 87% | 1017.3 hPa | 0 mm | - | 12 W/m² | - |
| 1777638881 | 13.89° C | 87% | 1017.6 hPa | 0 mm | - | 8 W/m² | - |
| 1777638577 | 13.89° C | 87% | 1017.7 hPa | 0 mm | - | 4 W/m² | - |
| 1777638274 | 13.89° C | 87% | 1017.6 hPa | 0 mm | - | 5 W/m² | - |
| 1777637970 | 13.89° C | 87% | 1017.5 hPa | 0 mm | - | 8 W/m² | - |
| 1777637666 | 13.89° C | 87% | 1017.2 hPa | 0 mm | - | 9 W/m² | - |
| 1777637363 | 13.89° C | 87% | 1016.8 hPa | 0 mm | - | 6 W/m² | - |
| 1777637060 | 13.89° C | 87% | 1016.8 hPa | 0 mm | - | 3 W/m² | - |
| 1777636756 | 13.89° C | 87% | 1016.7 hPa | 0 mm | - | 2 W/m² | - |
| 1777636452 | 13.89° C | 88% | 1016.5 hPa | 0 mm | - | 1 W/m² | - |
| 1777636148 | 13.89° C | 88% | 1016.1 hPa | 0 mm | - | 0 W/m² | - |
| 1777635843 | 13.89° C | 88% | 1016.6 hPa | 0 mm | - | 0 W/m² | - |
| 1777635540 | 13.89° C | 88% | 1016.6 hPa | 0 mm | - | 0 W/m² | - |
| 1777635236 | 13.89° C | 89% | 1016.5 hPa | 0 mm | - | 0 W/m² | - |
* Rain latest hour (hover to see other rain measurements)
** Current wind speed in m/s (hover to see current wind gust speed)